Rogers City, MI

10:02 PM EST on February 18, 2018 (GMT -0500)
Presque Isle County

Weather History for KPZQ - October, 2013

Change the Weather History Date:

Monday, October 7, 2013

  Actual Average (KAPN) Record (KAPN)
Temperature  
Mean Temperature 49 °F -  
Max Temperature 56 °F 57 °F 87 °F (2007)
Min Temperature 42 °F 38 °F 21 °F (1938)
Degree Days  
Heating Degree Days 16    
Moisture  
Dew Point 46 °F    
Average Humidity 85    
Maximum Humidity 94    
Minimum Humidity 65    
Precipitation  
Precipitation 0.00 in - - ()
Sea Level Pressure  
Sea Level Pressure 29.73 in    
Wind  
Wind Speed 9 mph (West)    
Max Wind Speed 18 mph    
Max Gust Speed 30 mph    
Visibility 9 miles    
Events Rain    
Averages and records for this station are not official NWS values.
T = Trace of Precipitation, MM = Missing Value Source: NWS Daily Summary

Daily Weather History Graph

Daily Weather History Graph

Search for Another Location

Airport or City:

Trip Planner

Search our weather history database for the weather conditions in past years. The results will help you decide how hot, cold, wet, or windy it might be!

Date:

Astronomy

Oct. 07, 2013 Rise Set
Actual Time 7:41 AM EDT 7:03 PM EDT
Civil Twilight 7:11 AM EDT 7:33 PM EDT
Nautical Twilight 6:37 AM EDT 8:07 PM EDT
Astronomical Twilight 6:03 AM EDT 8:41 PM EDT
Moon 10:39 AM EDT (10/7) 8:38 PM EDT (10/7)
Length of Visible Light 12h 21m
Length of Day
11h 22m
Waxing Crescent, 8% of the Moon is Illuminated
Oct 7
Waxing Crescent
Oct 11
First Quarter
Oct 18
Full
Oct 26
Last Quarter
Nov 3
New

Hourly Weather History & Observations

Time (EDT) Temp. Windchill Dew Point Humidity Pressure Visibility Wind Dir Wind Speed Gust Speed Precip Events Conditions
12:15 AM 55.0 °F - 51.8 °F 89% 29.62 in 10.0 mi SW 10.4 mph - N/A   Overcast
12:35 AM 54.5 °F - 51.1 °F 88% 29.62 in 10.0 mi SW 9.2 mph - N/A   Scattered Clouds
12:55 AM 54.0 °F - 50.7 °F 89% 29.60 in 10.0 mi SW 9.2 mph - N/A   Scattered Clouds
1:15 AM 53.6 °F - 50.2 °F 88% 29.61 in 10.0 mi SW 9.2 mph - N/A   Scattered Clouds
1:35 AM 53.1 °F - 50.0 °F 89% 29.59 in 10.0 mi SW 8.1 mph - N/A   Clear
1:55 AM 52.7 °F - 49.3 °F 88% 29.59 in 10.0 mi SW 9.2 mph - N/A   Clear
2:14 AM 52.0 °F - 48.9 °F 89% 29.58 in 10.0 mi SW 8.1 mph - N/A   Clear
2:35 AM 51.8 °F - 48.6 °F 89% 29.57 in 10.0 mi SW 9.2 mph - N/A   Clear
2:55 AM 51.8 °F - 48.2 °F 88% 29.57 in 10.0 mi SW 10.4 mph - N/A   Clear
3:15 AM 51.6 °F - 48.0 °F 87% 29.56 in 10.0 mi SW 9.2 mph - N/A   Clear
3:35 AM 51.1 °F - 47.7 °F 88% 29.56 in 10.0 mi SW 9.2 mph - N/A   Clear
3:55 AM 51.1 °F - 47.5 °F 87% 29.55 in 10.0 mi SW 10.4 mph - N/A   Clear
4:15 AM 51.3 °F - 47.3 °F 86% 29.55 in 10.0 mi SW 10.4 mph - N/A   Clear
4:35 AM 50.9 °F - 46.9 °F 86% 29.56 in 10.0 mi SW 10.4 mph - N/A   Clear
4:55 AM 50.9 °F - 46.8 °F 86% 29.56 in 10.0 mi SW 10.4 mph - N/A   Clear
5:15 AM 50.9 °F - 46.9 °F 86% 29.56 in 10.0 mi SSW 9.2 mph - N/A   Mostly Cloudy
5:34 AM 51.1 °F - 46.9 °F 86% 29.56 in 10.0 mi SSW 9.2 mph - N/A   Overcast
5:55 AM 50.2 °F - 46.6 °F 87% 29.56 in 10.0 mi SW 6.9 mph - N/A   Mostly Cloudy
6:15 AM 50.5 °F - 46.9 °F 87% 29.56 in 10.0 mi SW 8.1 mph - N/A   Overcast
6:35 AM 50.9 °F - 47.1 °F 87% 29.57 in 10.0 mi SW 6.9 mph - N/A   Overcast
6:55 AM 50.9 °F - 47.3 °F 87% 29.57 in 10.0 mi SW 8.1 mph - N/A Rain Light Rain
7:15 AM 50.0 °F - 47.7 °F 92% 29.58 in 4.0 mi SW 8.1 mph - N/A Rain Rain
7:35 AM 50.0 °F - 48.2 °F 94% 29.58 in 4.0 mi WSW 5.8 mph - N/A Rain Light Rain
7:55 AM 50.2 °F - 48.6 °F 94% 29.58 in 4.0 mi West 5.8 mph - N/A Rain Light Rain
8:14 AM 50.9 °F - 49.3 °F 94% 29.59 in 4.0 mi West 5.8 mph - N/A Rain Light Rain
8:35 AM 51.1 °F - 49.5 °F 94% 29.59 in 7.0 mi West 8.1 mph - N/A Rain Light Rain
8:55 AM 51.1 °F - 49.3 °F 94% 29.60 in 5.0 mi West 8.1 mph - N/A Rain Light Rain
9:14 AM 50.9 °F - 49.1 °F 94% 29.60 in 4.0 mi West 9.2 mph - N/A   Light Drizzle
9:35 AM 50.9 °F - 48.9 °F 93% 29.61 in 2.5 mi West 6.9 mph - N/A   Drizzle
9:54 AM 50.5 °F - 48.7 °F 94% 29.61 in 2.5 mi West 10.4 mph - N/A Rain Light Rain
10:15 AM 50.5 °F - 48.6 °F 93% 29.62 in 5.0 mi West 8.1 mph 16.1 mph N/A   Drizzle
10:35 AM 49.5 °F - 47.1 °F 92% 29.63 in 10.0 mi WNW 15.0 mph 25.3 mph N/A Rain Light Rain
10:55 AM 49.5 °F - 46.8 °F 90% 29.64 in 10.0 mi WNW 11.5 mph 18.4 mph N/A   Overcast
11:15 AM 49.1 °F - 46.4 °F 90% 29.65 in 10.0 mi WNW 11.5 mph 20.7 mph N/A   Overcast
11:35 AM 49.5 °F - 46.4 °F 89% 29.66 in 10.0 mi West 8.1 mph 17.3 mph N/A   Overcast
11:55 AM 49.5 °F - 45.9 °F 87% 29.67 in 10.0 mi WNW 12.7 mph 19.6 mph N/A   Overcast
12:14 PM 50.2 °F - 46.0 °F 86% 29.68 in 10.0 mi WNW 13.8 mph 23.0 mph N/A   Overcast
12:35 PM 52.0 °F - 45.3 °F 78% 29.68 in 10.0 mi West 11.5 mph 23.0 mph N/A   Mostly Cloudy
12:55 PM 52.5 °F - 45.1 °F 76% 29.69 in 10.0 mi WNW 16.1 mph 25.3 mph N/A   Mostly Cloudy
1:14 PM 53.4 °F - 44.2 °F 71% 29.70 in 10.0 mi NW 16.1 mph 29.9 mph N/A   Scattered Clouds
1:35 PM 54.3 °F - 43.9 °F 68% 29.71 in 10.0 mi WNW 18.4 mph 29.9 mph N/A   Mostly Cloudy
1:55 PM 54.7 °F - 43.7 °F 66% 29.71 in 10.0 mi NW 16.1 mph 23.0 mph N/A   Scattered Clouds
2:15 PM 54.0 °F - 43.2 °F 67% 29.72 in 10.0 mi WNW 15.0 mph 24.2 mph N/A   Mostly Cloudy
2:35 PM 53.8 °F - 42.8 °F 66% 29.73 in 10.0 mi NW 11.5 mph 24.2 mph N/A   Overcast
2:55 PM 56.1 °F - 44.4 °F 65% 29.74 in 10.0 mi WNW 9.2 mph 19.6 mph N/A   Mostly Cloudy
3:15 PM 53.6 °F - 43.2 °F 68% 29.75 in 10.0 mi WNW 11.5 mph 18.4 mph N/A   Overcast
3:35 PM 54.1 °F - 44.2 °F 69% 29.76 in 10.0 mi WNW 9.2 mph - N/A   Overcast
3:55 PM 52.0 °F - 46.9 °F 83% 29.78 in 5.0 mi WNW 6.9 mph 16.1 mph N/A Rain Light Rain
4:15 PM 52.0 °F - 48.2 °F 87% 29.78 in 10.0 mi WNW 4.6 mph - N/A   Mostly Cloudy
4:34 PM 52.3 °F - 48.9 °F 88% 29.80 in 7.0 mi WNW 5.8 mph - N/A Rain Light Rain
4:55 PM 51.4 °F - 47.3 °F 86% 29.81 in 5.0 mi WNW 10.4 mph 16.1 mph N/A Rain Light Rain
5:15 PM 50.9 °F - 47.5 °F 88% 29.82 in 7.0 mi WNW 8.1 mph - N/A Rain Light Rain
5:35 PM 51.3 °F - 48.0 °F 89% 29.84 in 10.0 mi NW 4.6 mph - N/A   Overcast
5:55 PM 52.0 °F - 48.2 °F 87% 29.85 in 10.0 mi WNW 6.9 mph - N/A   Overcast
6:14 PM 52.3 °F - 47.3 °F 83% 29.87 in 10.0 mi WNW 8.1 mph - N/A   Overcast
6:35 PM 51.8 °F - 46.0 °F 81% 29.88 in 10.0 mi WNW 9.2 mph - N/A   Mostly Cloudy
6:55 PM 50.9 °F - 45.5 °F 82% 29.89 in 10.0 mi West 8.1 mph - N/A   Scattered Clouds
7:14 PM 50.0 °F - 44.6 °F 82% 29.91 in 10.0 mi West 9.2 mph - N/A   Clear
7:35 PM 49.6 °F - 43.9 °F 81% 29.92 in 10.0 mi WNW 4.6 mph - N/A   Scattered Clouds
7:55 PM 49.1 °F - 43.9 °F 82% 29.93 in 10.0 mi WNW 6.9 mph - N/A   Mostly Cloudy
8:15 PM 48.6 °F - 43.7 °F 83% 29.94 in 10.0 mi WNW 5.8 mph - N/A   Scattered Clouds
8:35 PM 48.4 °F - 43.2 °F 82% 29.96 in 10.0 mi WNW 6.9 mph - N/A   Clear
8:55 PM 49.1 °F - 42.6 °F 78% 29.97 in 10.0 mi WNW 6.9 mph - N/A   Clear
9:15 PM 49.1 °F - 42.1 °F 77% 29.98 in 10.0 mi WNW 8.1 mph - N/A   Clear
9:35 PM 46.6 °F - 41.7 °F 83% 30.00 in 10.0 mi WSW 6.9 mph - N/A   Clear
9:55 PM 46.6 °F - 41.7 °F 83% 30.01 in 10.0 mi WSW 5.8 mph - N/A   Clear
10:15 PM 45.5 °F 43.2 °F 41.5 °F 86% 30.02 in 10.0 mi West 4.6 mph - N/A   Clear
10:35 PM 44.4 °F 41.2 °F 40.6 °F 87% 30.02 in 10.0 mi SW 5.8 mph - N/A   Clear
10:54 PM 44.6 °F 42.2 °F 41.0 °F 87% 30.03 in 10.0 mi SW 4.6 mph - N/A   Clear
11:15 PM 44.4 °F 42.0 °F 41.0 °F 88% 30.04 in 10.0 mi SW 4.6 mph - N/A   Clear
11:35 PM 42.8 °F 39.3 °F 40.1 °F 90% 30.05 in 10.0 mi WSW 5.8 mph - N/A   Clear
11:55 PM 43.0 °F 38.8 °F 40.3 °F 90% 30.05 in 10.0 mi SW 6.9 mph - N/A   Clear